GFSSGP_925_spd_231.txt.gz
Wind_Speed
26 9 3 3 2 2 2 3 1 4 3 0 3 4 4 2 3 2 11 9 21 24 21 17 15 14 14 16 17 17 17 16 14 14 14 14 14 13 12 11 11 11 11 11 11 12 11 11 10
25 7 2 2 3 1 3 2 5 3 5 8 6 3 2 2 1 6 12 18 26 26 21 17 13 12 14 18 18 18 18 16 14 14 13 13 12 13 12 11 11 10 11 11 10 10 10 9 9
16 6 2 3 3 4 4 4 5 3 7 3 4 3 4 1 1 16 7 26 26 25 21 16 11 10 14 21 20 19 20 16 14 14 13 13 12 12 11 10 10 10 10 9 9 10 11 11 9
9 5 3 2 4 5 4 3 4 10 2 2 3 6 1 5 11 10 22 26 27 24 20 17 12 14 19 23 20 20 19 14 14 14 13 13 12 11 10 10 10 10 10 10 11 12 13 14 13
4 3 2 1 4 4 4 2 8 8 6 4 4 5 2 4 10 19 27 27 24 23 20 18 14 17 20 20 21 22 19 14 13 14 14 14 13 9 9 10 10 10 10 10 11 11 11 11 11
3 2 2 3 4 3 4 4 5 4 4 5 4 9 6 7 18 25 28 26 20 24 21 19 17 19 20 22 22 19 16 12 12 13 13 12 11 10 10 10 10 10 10 10 10 10 10 10 10
5 3 3 3 4 3 4 6 4 6 6 6 7 9 2 8 21 29 28 24 19 22 22 20 19 18 19 19 18 14 11 11 13 14 13 12 11 11 10 10 10 10 9 8 8 9 9 9 10
5 4 2 3 3 6 3 5 2 7 5 2 6 6 5 9 26 25 28 21 19 23 22 21 19 18 17 16 15 13 12 13 14 13 13 12 11 11 10 10 9 8 7 7 7 8 8 9 11
3 3 4 4 4 5 5 3 2 2 6 2 5 3 0 31 31 25 23 21 23 24 23 21 21 19 17 16 14 13 14 14 14 13 12 12 11 10 10 9 8 6 6 6 6 8 8 9 10
4 5 9 6 4 4 4 3 3 5 5 4 2 2 16 30 30 25 22 22 23 25 25 23 21 20 17 16 16 15 16 15 14 12 12 11 10 9 8 7 5 5 5 6 6 7 8 10 12
4 7 6 5 6 4 3 3 5 2 3 7 13 11 19 26 24 24 23 24 25 26 24 24 22 20 18 18 17 16 16 15 14 12 11 9 8 7 6 5 5 4 6 7 6 8 10 12 11
4 6 8 8 7 5 3 2 3 7 7 7 9 18 22 22 23 26 26 26 26 26 25 25 23 21 19 18 18 18 17 16 13 11 10 8 8 7 5 5 5 6 5 6 8 9 11 11 10
8 5 8 11 8 6 3 8 8 7 11 7 11 17 22 21 23 24 23 24 26 27 26 25 25 22 20 20 20 19 18 15 12 10 9 8 7 6 5 5 2 2 3 5 7 8 10 9 9
6 9 15 11 11 6 5 6 8 7 4 4 10 16 18 22 26 24 26 25 26 25 28 25 25 22 20 21 20 20 18 15 12 10 9 9 7 7 7 4 1 2 3 6 7 7 8 8 8
8 15 15 14 8 7 3 11 7 9 3 9 10 10 14 17 27 28 29 27 27 26 27 30 26 22 19 20 20 18 16 14 13 11 9 9 8 8 5 3 2 2 3 5 4 4 6 8 9
5 6 16 8 11 7 8 26 5 5 7 10 12 11 12 16 24 25 26 25 25 25 28 31 28 25 21 20 20 18 16 15 13 13 11 11 10 9 7 6 3 2 3 3 3 3 6 8 9
10 14 14 13 12 8 18 12 13 9 10 10 12 14 14 12 16 22 26 29 32 30 31 31 28 27 23 20 21 19 17 16 15 14 13 11 9 9 8 6 3 2 1 2 4 9 10 12 12
13 14 11 11 3 17 21 16 6 8 11 13 13 12 13 16 19 22 24 29 31 31 31 31 28 27 25 23 21 19 18 17 17 15 13 12 10 9 8 7 5 5 6 7 7 10 13 14 12
13 19 17 8 5 7 15 20 16 9 10 12 12 13 14 16 16 21 24 29 30 31 31 31 30 28 29 25 24 22 21 18 17 15 14 12 11 9 8 9 9 10 10 12 9 7 9 14 13
9 13 22 18 8 3 12 13 10 16 16 14 16 15 15 12 13 18 24 26 29 31 31 32 33 31 30 29 27 26 24 19 17 15 13 12 11 11 11 12 13 12 12 10 9 7 3 8 11
13 13 8 15 7 8 6 11 14 14 13 11 13 14 14 16 15 14 19 25 28 29 30 30 33 34 32 31 30 24 21 20 17 16 16 16 16 16 16 15 13 8 6 7 8 6 4 5 13
14 8 15 14 12 18 11 12 9 18 23 10 13 14 16 15 13 11 15 20 26 27 29 32 32 33 32 31 32 32 30 22 17 20 21 21 19 18 14 9 6 7 7 8 11 10 10 7 6
8 10 10 13 11 6 9 6 6 7 16 23 14 17 14 16 16 14 14 21 24 25 27 29 30 31 31 31 32 33 28 22 27 26 24 21 17 13 10 8 9 11 12 14 14 14 14 15 15
6 9 9 11 7 7 14 11 7 12 19 20 20 16 19 15 13 10 16 24 23 22 24 26 28 28 29 29 29 30 30 32 32 27 23 18 14 10 10 13 14 14 15 15 15 15 16 16 17
8 6 4 6 6 5 6 14 16 8 17 23 26 22 16 15 16 14 12 15 21 22 23 24 25 24 24 26 26 25 25 29 31 26 22 18 16 15 16 15 15 15 15 16 16 15 16 15 15
1 9 7 7 3 1 6 8 5 5 8 14 24 16 16 15 13 16 13 16 19 20 22 22 24 24 22 22 23 28 32 30 27 22 19 19 17 16 16 16 15 15 15 15 14 14 15 14 14
4 9 7 2 1 3 4 5 6 8 7 9 16 17 16 15 15 14 16 17 20 21 22 25 27 28 29 31 33 33 32 29 24 22 21 20 18 17 16 16 15 14 14 13 13 14 14 13 13
5 7 3 4 5 4 3 3 3 11 11 11 16 16 14 12 14 13 14 20 19 21 22 24 24 33 37 35 34 31 26 24 24 22 21 20 19 17 16 16 14 13 13 12 12 13 12 12 12
5 3 5 3 3 3 2 1 2 10 13 4 9 12 14 14 14 13 13 22 21 25 24 24 23 23 32 37 33 31 27 23 24 22 22 20 19 17 15 14 13 12 12 11 10 11 11 10 9
4 5 4 3 4 1 3 1 7 13 7 8 8 10 11 12 12 13 18 20 24 22 26 27 29 27 29 29 30 32 28 23 23 23 21 20 19 17 15 13 12 12 11 10 8 9 8 7 6

GFSSGP_925_spd_234.txt.gz
Wind_Speed
18 9 3 3 5 5 9 5 3 8 8 4 10 5 4 3 2 2 9 10 18 22 21 18 18 17 20 18 17 17 15 14 14 14 14 13 13 12 11 11 11 10 11 10 10 10 9 9 9
14 5 2 2 6 8 8 4 8 7 6 10 9 7 5 2 3 7 11 11 21 21 20 19 18 19 19 20 18 18 16 14 14 14 14 13 12 11 11 10 10 10 10 10 9 9 8 8 8
7 3 3 3 5 10 6 6 6 2 10 8 7 2 3 3 4 16 6 20 21 20 19 18 18 18 20 20 19 19 18 13 14 14 14 13 12 11 10 9 10 10 10 10 10 10 10 10 9
4 2 3 5 10 9 7 3 4 9 5 6 3 5 3 1 7 14 20 22 21 19 17 17 16 17 21 23 21 21 20 13 15 14 14 13 12 11 10 9 9 10 10 10 10 10 11 11 10
1 2 5 6 12 6 7 6 7 12 5 8 8 5 3 5 9 17 24 23 21 19 16 13 15 15 23 25 22 22 19 13 14 14 14 12 10 9 10 10 10 9 10 9 9 9 10 10 9
3 2 6 11 14 6 8 6 7 12 7 5 6 7 5 7 16 22 24 22 19 19 17 13 17 20 24 23 23 23 18 13 15 15 14 13 11 10 10 10 9 9 9 8 8 8 8 8 8
6 6 9 11 11 8 8 5 10 13 10 8 1 7 4 11 15 24 23 22 19 18 18 15 16 19 22 23 24 22 18 14 14 15 14 13 11 11 10 10 9 9 8 7 7 6 7 8 8
4 5 10 10 12 14 3 4 5 12 10 2 6 6 5 18 20 24 23 20 18 18 17 18 16 19 22 25 23 19 14 14 16 15 14 13 12 11 10 10 8 7 6 6 5 6 7 6 8
2 8 12 17 15 11 3 5 3 3 5 5 8 2 2 26 25 25 24 22 19 19 19 17 18 16 16 16 17 15 15 15 15 14 13 12 9 9 8 8 7 6 5 4 4 5 7 8 10
10 13 20 12 14 10 5 5 5 4 7 7 6 3 10 27 27 28 28 26 24 22 22 19 17 17 16 14 16 14 14 13 13 11 12 10 9 8 8 7 6 5 4 4 4 6 8 9 7
6 17 16 14 12 8 5 5 4 8 8 13 14 13 19 25 25 26 26 25 26 24 20 20 18 16 15 14 14 14 14 13 12 12 12 10 9 8 6 5 4 3 5 4 5 7 8 8 7
13 12 15 17 11 7 9 4 5 10 16 4 5 14 19 21 24 30 27 26 28 26 23 21 19 17 15 14 14 13 13 13 13 12 11 10 9 8 6 5 5 4 3 2 4 5 7 7 7
17 15 14 16 18 18 19 18 17 12 15 12 3 17 21 20 25 27 25 24 25 25 24 21 20 18 15 14 14 13 13 13 12 12 11 10 9 8 7 6 4 2 0 2 3 3 4 5 7
10 12 12 15 19 18 17 19 17 14 15 12 11 17 19 22 26 26 27 27 27 27 25 22 21 19 17 15 14 14 13 12 11 11 10 9 9 9 8 6 4 3 2 3 3 3 4 5 6
12 18 18 19 13 15 16 27 28 16 12 9 12 13 17 20 26 30 29 29 30 27 27 24 21 18 17 17 16 15 14 12 10 9 9 8 9 9 8 4 3 3 2 2 2 3 4 5 7
8 13 17 13 20 15 12 26 21 21 17 17 14 13 16 20 27 27 26 27 26 26 26 26 22 19 17 16 16 15 13 12 12 12 8 11 11 9 9 7 6 4 4 1 2 3 4 6 7
11 15 17 15 16 15 24 23 17 16 15 18 16 15 15 17 22 27 28 27 27 26 27 27 24 22 18 15 15 13 14 15 15 15 12 11 11 10 9 9 7 4 2 3 5 7 5 6 7
10 14 17 20 14 9 24 26 21 16 22 21 17 16 16 18 22 28 27 26 25 25 24 26 25 23 20 17 16 16 17 17 17 17 16 15 13 12 11 8 5 4 4 6 7 9 9 11 9
18 19 21 18 13 13 14 15 14 17 19 22 23 18 17 19 18 24 27 28 26 25 25 28 28 25 23 20 19 18 20 17 16 16 16 15 14 12 9 7 7 7 8 9 8 8 10 10 13
18 18 19 16 19 21 21 26 18 17 16 21 21 21 19 16 18 22 29 29 28 28 26 28 28 27 25 21 19 19 22 18 18 17 14 13 12 11 11 10 11 12 10 7 5 4 2 7 4
18 19 18 13 15 21 16 25 23 17 21 21 24 22 20 20 18 18 25 31 29 28 29 29 29 28 27 25 29 24 21 18 16 16 16 14 14 13 14 15 13 9 5 3 3 3 5 7 7
16 16 17 18 11 10 8 20 25 22 23 25 24 25 22 19 18 17 20 27 31 30 29 29 29 28 26 34 33 33 30 20 15 20 19 18 17 17 15 12 8 6 6 7 9 9 8 6 5
11 13 15 16 15 13 16 11 15 19 25 24 25 27 26 20 19 19 19 28 29 26 26 27 28 28 33 37 36 34 22 21 25 24 23 20 19 17 13 10 9 11 12 12 13 12 12 12 10
10 9 12 15 13 13 20 15 21 17 24 24 22 24 23 19 20 20 19 23 22 22 22 28 29 27 34 35 34 34 31 29 30 27 24 21 19 16 14 15 15 13 13 13 14 13 14 13 13
11 8 4 6 7 12 16 16 25 17 25 27 25 23 22 20 20 15 16 19 21 22 26 30 31 30 32 33 32 31 28 30 34 33 27 22 18 18 17 16 15 15 15 15 14 13 14 13 13
8 6 5 8 9 12 9 6 8 3 11 17 20 24 28 26 20 19 17 20 24 22 25 28 30 29 29 29 28 28 29 32 33 29 26 25 23 20 17 16 16 16 15 15 13 14 13 12 13
3 6 4 6 15 11 10 11 10 4 5 10 17 21 23 23 22 20 16 23 23 25 25 25 26 25 26 27 27 30 36 34 37 31 26 27 23 19 17 16 16 15 15 13 13 14 12 11 11
5 3 5 4 6 12 9 8 9 11 16 14 16 21 15 16 16 16 15 20 21 24 26 22 24 26 28 29 30 36 33 34 31 32 28 26 22 19 17 17 16 15 14 13 12 12 10 10 9
3 4 4 4 7 5 7 4 2 9 13 16 10 11 14 15 14 13 14 21 22 23 33 26 28 30 30 32 33 33 33 32 30 31 27 24 22 20 18 17 16 14 13 12 11 10 9 9 8
3 9 5 5 4 5 2 3 5 9 12 11 4 3 8 12 14 14 15 23 24 24 29 27 27 30 33 36 36 29 33 30 29 26 24 22 21 19 18 16 15 13 12 10 9 8 8 7 5

GFSSGP_925_spd_237.txt.gz
Wind_Speed
15 9 5 5 6 6 13 9 11 3 4 4 8 4 2 6 2 2 13 11 20 22 22 21 20 21 21 19 17 16 14 13 13 13 13 12 11 10 10 11 10 10 10 10 10 10 10 9 10
13 9 5 4 7 11 11 11 7 8 6 5 6 3 4 4 6 11 14 13 21 21 21 20 21 22 22 20 19 17 15 14 14 13 12 12 11 10 10 10 10 10 9 10 9 9 9 9 9
11 7 4 5 11 13 10 3 10 6 4 6 4 6 2 4 5 15 8 21 22 20 19 19 22 22 24 21 20 19 16 14 14 14 13 12 11 10 9 10 10 9 10 10 11 11 10 10 9
6 6 4 8 15 13 18 2 11 5 5 5 6 5 3 5 8 10 20 24 21 20 18 18 21 21 22 22 21 20 18 14 15 14 13 12 10 10 9 9 9 10 10 10 10 9 9 9 8
9 4 10 13 19 18 6 13 8 10 10 8 7 6 2 4 6 14 23 23 22 19 18 16 19 20 21 23 21 22 18 14 16 15 14 12 10 10 10 9 9 9 9 9 8 8 8 8 8
7 5 10 14 17 17 12 13 9 10 12 5 6 8 4 7 12 18 21 21 20 19 17 15 15 18 22 24 22 23 19 13 16 15 13 12 9 10 10 9 9 9 8 7 7 7 6 7 7
12 10 15 18 17 16 9 5 11 11 14 11 5 9 5 10 14 20 21 19 19 18 16 13 13 15 22 23 22 23 18 15 16 15 15 14 11 11 10 10 9 8 7 6 5 5 5 6 6
8 11 19 17 16 20 15 5 6 10 14 3 1 6 6 15 19 21 20 19 18 19 18 14 16 17 19 20 22 22 17 15 15 16 14 12 11 11 10 9 8 7 6 4 4 6 6 6 9
8 10 16 21 18 16 10 10 9 2 8 3 6 4 5 21 21 22 22 20 18 20 20 18 17 20 20 23 24 20 15 14 14 13 12 11 8 9 10 8 7 6 4 4 5 6 8 8 9
11 13 23 19 17 18 16 13 12 6 11 14 10 5 4 20 24 25 25 24 21 20 22 21 18 19 21 18 20 13 13 12 12 12 14 10 10 10 9 8 6 4 4 5 6 9 10 8 5
12 20 18 17 17 14 18 14 13 11 14 12 16 13 13 20 22 23 25 25 24 22 22 22 20 18 17 16 15 12 12 12 12 12 12 11 11 9 8 6 5 3 4 3 5 6 7 8 7
21 18 16 20 20 14 20 17 18 14 15 5 5 8 17 19 19 26 25 25 25 26 22 23 22 20 18 15 16 14 13 13 12 12 12 11 10 9 9 8 7 5 3 4 4 4 6 7 8
20 17 19 18 20 20 19 22 19 19 13 11 7 8 18 18 23 26 25 23 24 26 24 22 22 21 19 17 16 15 15 14 13 13 12 10 10 9 9 7 5 5 3 1 3 3 4 6 8
13 15 16 14 18 21 22 24 23 24 20 18 11 12 16 20 25 24 27 26 26 26 27 25 22 20 19 17 16 15 15 15 14 13 12 11 10 10 9 7 5 4 1 0 1 3 4 5 7
15 19 20 20 16 21 18 26 29 22 22 21 14 14 16 19 24 29 28 28 28 28 26 27 23 21 19 17 16 15 14 14 15 14 13 12 10 10 8 8 5 4 3 2 2 4 5 6 8
17 18 18 15 24 21 16 34 22 22 25 24 23 16 15 19 22 27 25 26 27 27 27 27 25 23 20 17 16 15 14 14 13 13 13 11 13 11 10 8 7 6 4 3 3 4 5 7 7
11 13 17 17 19 17 26 33 21 19 18 26 24 21 17 16 20 26 28 27 26 28 28 28 29 25 23 19 17 15 16 13 10 10 10 10 12 11 11 10 8 5 3 4 5 5 6 9 10
11 13 16 17 16 19 20 27 24 24 21 24 23 21 21 18 20 25 27 26 26 27 26 28 29 25 25 21 19 21 17 12 16 16 14 11 12 13 13 10 8 6 6 6 6 7 13 13 12
16 18 22 19 19 20 21 23 19 20 18 16 22 23 23 19 18 25 25 26 26 28 28 29 30 28 27 25 23 17 16 15 16 18 18 16 13 13 12 9 6 6 8 9 9 12 13 13 12
15 18 20 19 18 21 24 28 25 24 26 19 18 23 22 18 18 18 27 28 29 29 29 29 31 29 29 25 22 16 19 13 15 16 15 14 13 12 12 11 10 11 12 11 8 5 6 7 7
15 16 18 21 18 22 22 32 29 27 28 25 22 22 21 19 19 19 20 30 32 32 33 34 34 31 30 26 24 21 21 16 15 15 14 13 13 13 12 13 14 13 10 7 5 5 4 8 7
16 15 15 17 15 12 11 12 16 16 26 29 25 23 23 21 16 17 19 25 30 32 31 32 34 33 31 30 31 32 25 19 13 19 17 14 14 14 15 15 13 10 9 8 9 10 10 6 7
13 12 14 16 16 17 19 13 7 18 26 24 26 24 25 24 22 17 19 28 32 32 32 33 34 33 31 32 31 32 20 19 23 22 22 19 18 18 18 16 15 14 14 13 12 12 14 13 12
13 14 16 16 13 14 16 16 17 17 21 17 17 25 21 24 25 20 26 29 30 31 31 32 35 32 32 33 28 30 31 29 29 27 26 24 23 20 18 18 18 16 14 13 12 13 15 16 15
9 10 5 4 6 10 12 14 24 13 20 23 24 22 23 22 23 22 21 19 27 30 31 32 33 29 31 29 26 28 32 31 30 31 32 30 24 24 22 20 19 16 13 13 12 14 15 15 15
17 5 4 8 8 12 18 8 13 11 9 12 13 19 16 21 20 20 21 22 29 30 28 30 33 32 29 30 31 31 29 29 29 33 33 29 27 27 22 22 18 16 14 14 13 15 16 15 15
0 5 2 7 18 12 8 15 22 19 7 9 13 15 18 17 19 17 20 25 29 27 27 27 27 30 30 28 27 25 26 30 35 34 30 30 29 25 23 20 18 16 15 13 13 14 15 13 13
7 5 5 3 5 8 8 14 12 10 15 18 17 16 16 20 18 17 15 20 24 26 29 31 28 26 25 25 27 30 31 35 35 33 34 31 28 25 21 17 16 16 15 14 14 14 13 12 11
4 2 4 5 5 5 7 6 6 15 17 20 20 20 17 20 12 13 11 14 16 28 34 28 32 32 31 31 33 35 36 36 36 37 32 29 26 23 22 18 16 16 15 13 13 12 11 10 9
4 6 8 5 6 7 9 10 9 13 17 14 17 12 9 2 11 13 13 17 17 21 30 31 34 36 35 34 34 38 37 41 40 34 30 27 25 21 20 18 16 15 14 12 11 10 9 8 8

GFSSGP_925_spd_240.txt.gz
Wind_Speed
14 11 9 6 2 4 10 12 10 7 4 7 5 4 7 9 6 2 19 14 25 25 26 27 24 24 22 19 18 16 14 15 14 14 13 13 12 12 12 12 12 12 12 12 12 12 12 11 12
15 11 8 3 3 7 8 13 3 6 10 7 9 2 2 5 7 9 11 17 26 26 25 23 23 23 21 20 18 16 15 15 15 15 14 12 12 12 11 12 12 12 12 11 11 11 11 11 11
17 12 2 3 5 9 9 12 7 10 5 6 2 3 5 3 10 15 8 22 25 25 23 22 23 24 21 22 19 17 15 16 15 15 14 13 12 12 12 12 12 13 13 13 13 13 12 12 11
8 4 4 4 9 12 17 6 12 5 4 5 4 5 6 4 9 11 22 24 23 22 22 21 24 24 21 21 20 18 14 16 15 14 14 13 12 11 12 12 12 12 13 12 12 11 11 11 10
10 4 5 7 13 13 14 1 8 6 4 6 4 3 5 5 11 18 21 23 22 21 22 20 22 23 22 19 20 20 15 15 16 14 14 13 12 12 12 12 12 12 11 10 11 11 10 9 8
3 3 7 10 14 12 12 7 3 8 8 8 5 5 5 14 15 19 22 21 21 21 18 20 21 22 21 20 20 21 17 15 17 16 15 12 12 12 12 12 11 11 10 10 9 8 8 8 8
4 6 10 12 11 11 9 6 3 5 10 8 6 1 4 8 18 20 21 20 19 18 17 14 20 21 22 22 21 21 17 15 17 15 13 14 12 12 12 12 11 10 9 8 7 7 7 8 10
6 7 12 12 12 14 8 2 5 2 8 4 4 2 5 9 21 22 19 18 19 18 18 16 16 18 23 24 23 22 18 17 16 16 15 14 13 12 12 11 10 9 8 7 7 7 8 9 13
7 5 11 16 14 13 8 10 8 4 4 2 4 4 6 25 22 22 21 18 15 19 18 18 17 19 25 25 24 23 21 19 19 18 16 13 12 12 12 10 9 8 7 6 8 9 11 9 9
8 8 14 12 12 12 10 12 7 4 7 6 6 10 15 24 21 22 20 20 17 21 20 20 19 22 24 25 26 24 21 18 17 17 15 14 10 11 9 9 9 7 7 8 10 11 7 7 10
9 15 13 15 14 14 13 11 6 7 7 7 9 12 15 18 18 21 23 24 26 18 20 21 22 24 24 26 28 20 18 15 14 14 17 12 14 13 11 9 8 7 6 7 8 4 7 8 8
18 16 15 13 13 16 14 15 12 8 9 4 6 4 17 15 15 19 23 23 32 25 22 21 20 24 25 23 22 19 17 17 17 15 16 15 14 14 11 8 7 7 9 7 4 3 8 10 10
14 13 15 14 11 13 15 16 15 15 11 10 7 4 14 14 15 21 21 23 30 31 24 26 23 22 21 19 20 21 19 20 17 17 17 16 15 14 12 13 12 10 8 6 5 3 8 9 12
12 16 16 13 14 11 16 18 17 16 15 15 10 9 12 13 18 19 23 24 29 31 33 25 28 25 21 20 19 19 18 19 18 18 18 16 15 13 13 14 13 10 6 6 6 5 10 9 9
12 15 15 15 14 12 11 25 26 15 17 18 17 12 10 15 21 23 28 24 26 29 33 28 28 26 25 24 21 19 18 19 19 17 16 16 14 15 15 15 11 8 7 5 4 8 9 10 9
8 9 5 4 14 14 11 27 6 20 22 23 19 15 12 12 17 28 26 25 28 29 32 37 26 27 26 25 25 22 20 20 18 16 16 17 14 17 16 14 8 8 8 9 7 8 12 14 14
6 5 11 11 7 9 20 19 12 14 17 18 22 21 13 15 14 25 29 30 26 31 34 37 35 27 27 25 25 23 23 22 19 18 18 18 17 15 16 12 10 8 8 8 9 13 13 14 12
12 14 15 15 13 21 19 20 14 10 15 20 17 14 18 15 18 25 31 30 29 29 35 37 37 27 28 27 26 24 26 24 24 21 19 18 17 15 14 13 12 11 11 10 9 13 15 12 11
13 13 14 14 14 18 20 23 19 17 20 19 17 12 14 18 15 27 31 30 30 27 31 35 37 30 29 30 30 29 28 24 23 22 21 19 17 16 15 14 14 14 12 11 12 16 16 15 16
12 14 14 13 10 13 16 25 21 19 23 21 19 17 14 14 8 18 29 30 31 30 30 34 35 35 31 29 30 28 30 23 24 23 22 20 19 17 16 16 15 14 15 15 15 14 12 11 7
11 14 13 16 15 12 15 25 22 20 25 22 23 17 16 15 11 8 20 29 30 30 32 35 37 37 33 31 32 27 26 24 20 21 21 17 17 16 16 15 16 18 18 16 12 10 8 11 7
11 8 12 14 11 3 7 10 16 20 19 21 25 22 19 16 12 7 16 24 30 31 31 32 33 36 33 34 33 38 27 22 20 25 21 20 17 16 16 18 19 19 18 17 16 13 12 11 14
7 10 12 14 12 12 10 6 5 5 9 14 14 17 24 18 17 14 18 24 30 35 31 33 34 36 35 36 38 37 27 22 28 26 24 20 19 19 21 21 21 21 21 20 18 16 15 13 11
15 13 15 14 8 5 15 9 6 4 9 13 18 14 22 22 19 17 18 31 31 33 33 34 37 37 35 37 38 35 33 32 32 29 26 24 24 25 24 24 22 22 22 21 19 18 16 15 15
6 9 4 4 2 5 7 5 15 24 24 20 19 15 10 14 21 18 17 18 28 31 31 32 34 35 36 37 38 33 36 37 36 34 32 31 30 28 26 25 25 22 19 18 16 15 18 16 16
14 1 5 5 3 12 12 7 7 14 11 7 7 11 13 14 8 13 18 18 29 32 34 33 33 31 37 36 34 31 33 32 31 31 33 33 32 31 28 29 25 23 19 16 16 19 19 17 17
4 3 6 5 9 6 4 7 9 15 17 20 20 20 15 14 16 14 13 22 27 33 36 37 33 31 35 38 35 32 31 31 32 33 35 36 34 33 29 27 26 21 18 18 17 18 19 18 17
4 6 4 2 5 5 4 10 5 17 20 24 22 19 17 16 20 15 14 18 24 24 24 26 36 37 37 37 33 32 31 32 34 38 37 38 35 33 29 27 24 19 18 18 18 19 17 18 16
3 2 2 4 4 3 5 5 6 11 14 19 22 19 17 16 16 18 9 12 23 23 28 27 33 37 36 38 36 37 36 37 40 38 40 36 34 30 26 23 22 21 18 17 18 17 15 16 16
3 4 8 4 4 6 7 7 2 14 18 19 19 19 17 13 11 9 11 14 21 21 22 26 31 34 38 42 40 42 43 43 46 43 38 35 31 27 24 22 21 20 19 17 16 16 14 14 14

GFSSGP_925_spd_246.txt.gz
Wind_Speed
21 20 15 2 2 3 3 6 3 4 5 5 5 5 7 3 4 4 7 11 30 32 34 31 27 27 24 21 20 20 20 19 19 19 19 18 18 17 18 17 18 15 15 14 14 14 14 15 16
19 17 3 1 3 2 5 5 4 2 3 1 3 3 3 2 2 7 16 14 28 35 36 32 28 29 25 22 20 21 20 19 19 19 18 18 17 17 15 17 16 15 15 14 14 14 14 14 14
13 5 2 3 3 5 5 4 2 3 2 2 2 4 4 6 2 15 7 25 31 34 37 33 30 28 25 24 21 22 21 20 19 18 17 16 16 15 15 15 15 15 15 15 14 13 13 13 13
7 3 3 2 7 7 8 6 4 4 2 1 4 3 1 5 14 16 23 31 33 35 35 33 30 28 25 24 20 20 23 21 19 17 17 17 17 15 16 16 17 17 16 14 13 12 12 12 11
2 2 1 4 6 6 5 4 4 5 3 2 3 5 4 1 8 20 34 35 33 36 35 33 30 29 26 25 24 21 24 22 19 18 17 17 17 16 17 18 17 15 14 13 12 11 11 11 11
2 2 1 5 6 7 7 6 4 6 5 3 4 7 5 7 21 30 34 33 30 36 35 33 31 29 28 26 25 22 24 24 21 19 18 18 18 18 18 17 15 15 14 12 11 11 10 10 11
3 2 4 5 5 5 6 4 3 9 6 6 7 6 0 4 22 32 34 31 29 30 34 33 32 29 28 27 26 23 24 25 23 20 19 18 19 18 18 16 16 15 13 11 11 12 11 13 13
2 3 3 4 8 10 6 4 4 3 7 0 7 6 5 8 23 27 30 31 30 29 32 33 32 31 29 28 27 24 24 26 25 21 19 20 20 20 18 17 15 14 12 12 11 13 14 13 11
2 3 5 7 8 9 6 3 6 3 4 1 1 6 4 27 28 29 27 28 31 33 33 32 34 34 30 29 28 25 24 26 24 23 20 21 21 21 20 18 16 14 13 12 11 11 13 11 14
3 4 6 4 5 5 7 2 6 5 6 2 2 4 16 30 29 26 23 22 27 30 35 34 34 36 33 30 29 27 26 26 26 25 23 20 21 21 19 17 16 14 15 14 11 10 14 11 13
4 5 5 8 9 10 12 12 4 3 6 7 7 9 12 17 20 23 23 26 32 33 35 36 37 35 32 32 32 31 28 29 27 25 24 20 21 21 20 19 17 17 16 14 12 11 14 14 14
6 6 4 6 10 9 10 10 9 7 7 7 8 9 14 15 18 23 23 24 30 35 34 35 36 38 35 31 37 35 33 31 30 28 24 23 23 23 21 20 18 18 16 15 13 12 14 15 15
2 7 12 10 10 9 10 8 9 15 8 9 6 8 13 14 19 24 27 23 26 29 32 36 36 34 37 38 37 37 37 35 32 28 28 27 26 25 21 21 19 18 17 16 14 13 15 15 16
6 7 11 7 13 7 11 13 3 2 7 10 4 9 11 14 18 21 19 23 29 34 37 36 36 36 37 39 41 37 35 36 33 31 31 29 26 24 24 23 21 18 21 20 15 15 16 16 15
7 6 7 3 6 5 13 13 19 8 9 13 13 8 11 13 19 19 29 29 33 33 38 39 38 37 38 39 40 37 36 36 32 32 34 31 30 27 25 26 23 24 23 20 18 18 18 18 16
5 3 6 11 7 6 7 11 18 9 9 12 14 10 9 12 16 25 29 30 35 33 37 40 38 40 39 37 37 39 37 35 35 33 35 31 30 28 30 27 31 26 24 22 21 21 20 20 19
5 5 9 8 9 5 2 12 9 19 13 15 12 12 8 7 9 22 30 31 34 38 40 41 39 38 40 37 36 35 36 35 36 34 33 32 31 29 28 32 29 26 24 22 22 23 21 21 20
8 7 5 10 7 18 17 24 10 11 17 20 17 13 11 11 9 13 27 33 34 37 39 43 39 39 39 37 32 33 32 34 34 32 32 32 31 30 32 31 28 27 25 23 24 24 21 22 23
6 6 10 14 14 9 13 25 21 17 18 20 18 17 16 11 9 18 17 29 31 38 35 36 37 39 38 35 35 31 31 35 33 33 31 32 31 26 31 29 27 26 26 27 25 25 25 23 25
8 9 9 10 7 11 16 23 24 22 21 19 19 17 15 14 9 12 19 22 27 32 39 40 41 39 40 37 36 29 33 31 31 30 32 33 32 28 26 28 27 26 25 25 28 30 25 23 25
6 5 6 12 15 11 10 10 7 13 7 7 9 13 13 15 14 11 10 18 26 32 35 38 43 41 40 35 32 29 33 29 27 29 30 28 28 26 26 26 26 25 24 26 27 30 23 21 12
6 5 12 17 11 6 6 7 13 9 9 6 8 10 11 9 11 10 9 10 22 27 32 42 44 40 38 40 41 43 34 23 22 31 27 26 24 24 24 24 23 22 21 22 23 23 19 25 18
10 11 15 16 15 7 3 3 9 4 5 7 8 12 12 12 10 10 12 20 26 30 33 32 39 41 36 42 45 41 31 28 33 31 28 24 23 22 21 22 22 22 22 22 21 18 16 19 15
8 9 15 2 1 3 4 4 9 3 3 5 9 9 10 13 13 13 18 19 22 28 31 31 33 36 36 40 42 41 35 35 35 33 30 25 22 21 21 21 22 23 23 24 25 24 22 19 16
10 4 4 6 3 6 2 3 10 1 2 5 9 14 14 9 12 12 11 13 18 14 28 32 33 35 35 39 41 38 43 45 44 41 36 30 26 23 23 25 27 28 28 29 27 23 20 16 13
5 2 3 5 3 12 8 6 5 4 1 6 9 12 14 16 12 13 9 12 18 17 15 31 35 32 32 39 38 36 43 41 39 40 39 34 32 30 28 30 32 31 27 25 25 25 22 16 12
5 2 7 5 3 4 3 6 3 5 14 23 24 22 20 17 17 17 13 13 18 21 18 23 30 34 37 41 34 39 40 40 39 37 37 35 33 34 33 32 30 28 27 26 26 22 18 16 19
4 2 4 3 5 5 4 5 5 11 18 19 23 23 21 20 17 18 14 15 16 22 21 20 34 34 35 35 39 38 40 39 39 39 38 37 37 37 33 32 31 29 26 21 18 22 22 21 19
5 4 2 3 4 4 6 4 3 9 21 21 23 23 24 23 21 19 16 20 23 27 25 22 31 28 32 34 32 36 35 36 37 38 38 40 41 38 36 35 32 28 25 23 23 23 23 21 19
4 1 1 3 4 5 5 7 5 20 18 18 23 22 21 21 18 16 14 18 19 15 20 20 28 32 33 34 36 35 36 36 42 44 44 43 45 42 39 34 32 27 27 25 24 23 20 19 18